CW2732 Weather Reports


time (UTC)temp
C
wind
direction
speed
KPH
gust
KPH
rain 1hr
cm
rain 24hr
cm
rain mn
cm
humidity
%
barometer
mb
20260502224343 17 27 1.6 8.0 0.00 0.00 0.00 87 1017.4
20260502223342 17 41 4.8 9.7 0.00 0.00 0.00 87 1017.3
20260502222333 17 69 4.8 12.9 0.00 0.00 0.00 86 1017.2
20260502221332 17 44 4.8 12.9 0.00 0.00 0.00 86 1017.3
20260502215355 18 13 4.8 12.9 0.00 0.00 0.00 86 1017.5
20260502214415 18 360 4.8 11.3 0.00 0.00 0.00 85 1017.6
20260502213343 18 55 4.8 12.9 0.00 0.00 0.00 85 1017.6
20260502212341 18 80 6.4 12.9 0.00 0.00 0.00 85 1017.8
20260502211332 18 88 4.8 9.7 0.00 0.00 0.00 85 1017.6
20260502210350 18 33 1.6 8.0 0.00 0.00 0.00 85 1017.5
20260502205342 18 14 3.2 9.7 0.00 0.00 0.00 85 1017.5
20260502204332 18 17 6.4 12.9 0.00 0.00 0.00 85 1017.5
20260502203332 18 22 6.4 14.5 0.00 0.00 0.00 86 1017.4
20260502202347 18 340 6.4 9.7 0.00 0.00 0.00 86 1017.4
20260502201335 18 65 9.7 14.5 0.00 0.00 0.00 86 1017.2
20260502200334 18 69 3.2 14.5 0.00 0.00 0.00 87 1017.2
20260502195403 18 45 4.8 16.1 0.00 0.00 0.00 87 1017.1
20260502194332 17 73 9.7 16.1 0.00 0.00 0.00 87 1017.0
20260502193332 18 360 8.0 12.9 0.00 0.00 0.00 87 1017.0
20260502192346 18 79 6.4 12.9 0.00 0.00 0.00 86 1017.1
20260502191335 18 59 4.8 14.5 0.00 0.00 0.00 86 1017.0
20260502190347 18 18 8.0 17.7 0.00 0.00 0.00 86 1017.0
20260502185355 18 71 6.4 16.1 0.00 0.00 0.00 85 1017.0
20260502184353 18 65 9.7 14.5 0.00 0.00 0.00 85 1017.0
20260502183338 18 18 4.8 14.5 0.00 0.00 0.00 84 1017.1
20260502182337 18 82 4.8 12.9 0.00 0.00 0.00 84 1017.1
20260502181355 18 13 9.7 16.1 0.00 0.00 0.00 83 1017.1
20260502180405 18 87 3.2 16.1 0.00 0.00 0.00 83 1017.3
20260502170341 19 32 6.4 25.7 0.00 0.00 0.00 81 1017.4
20260502164335 19 69 8.0 25.7 0.00 0.00 0.00 80 1017.4
20260502163343 20 57 9.7 25.7 0.00 0.00 0.00 79 1017.7
20260502162358 20 87 4.8 25.7 0.00 0.00 0.00 80 1017.9
20260502161335 20 30 9.7 25.7 0.00 0.00 0.00 78 1017.9
20260502160415 20 65 4.8 25.7 0.00 0.00 0.00 78 1018.0
20260502152341 20 87 9.7 25.7 0.00 0.00 0.00 77 1018.3
20260502151336 20 68 8.0 25.7 0.00 0.00 0.00 77 1018.3
20260502150349 20 120 4.8 25.7 0.00 0.00 0.00 77 1018.4
20260502130330 21 92 11.3 25.7 0.00 0.00 0.00 73 1019.4
20260502123355 21 69 11.3 25.7 0.00 0.00 0.00 73 1019.3
20260502122401 21 82 12.9 24.1 0.00 0.00 0.00 72 1019.7
20260502121331 21 67 8.0 22.5 0.00 0.00 0.00 74 1019.9
20260502120340 21 103 9.7 22.5 0.00 0.00 0.00 76 1019.9
20260502115405 21 78 11.3 22.5 0.00 0.00 0.00 75 1020.0
20260502114401 21 101 9.7 22.5 0.00 0.00 0.00 75 1020.1
20260502113357 21 34 11.3 22.5 0.00 0.00 0.00 75 1020.0
20260502112355 21 65 11.3 22.5 0.00 0.00 0.00 74 1020.1
20260502111340 21 59 8.0 22.5 0.00 0.00 0.00 75 1020.1
20260502110337 21 75 8.0 22.5 0.00 0.00 0.00 75 1020.3
20260502105407 21 66 9.7 22.5 0.00 0.00 0.00 75 1020.3
20260502104336 21 83 8.0 22.5 0.00 0.00 0.00 75 1020.3
20260502103333 21 59 11.3 22.5 0.00 0.00 0.00 76 1020.4
20260502102351 20 115 9.7 22.5 0.00 0.00 0.00 76 1020.6
20260502101339 21 51 9.7 22.5 0.00 0.00 0.00 75 1020.9
20260502100336 21 59 8.0 22.5 0.00 0.00 0.00 75 1020.7
20260502091337 20 98 6.4 22.5 0.00 0.00 0.00 80 1021.0
20260502090355 20 51 9.7 20.9 0.00 0.00 0.00 79 1020.9
20260502071355 19 59 4.8 12.9 0.00 0.00 0.00 78 1020.8
20260502070338 19 53 3.2 11.3 0.00 0.00 0.00 78 1021.0
20260502065341 19 60 3.2 11.3 0.00 0.00 0.00 79 1021.0
20260502064356 19 78 4.8 11.3 0.00 0.00 0.00 78 1021.0
20260502063340 18 67 3.2 11.3 0.00 0.00 0.00 79 1020.9
20260502062334 18 59 0.0 3.2 0.00 0.00 0.00 81 1020.8
20260502061339 18 21 0.0 0.0 0.00 0.00 0.00 83 1020.9
20260502060333 18 360 0.0 0.0 0.00 0.00 0.00 83 1020.7
20260502055338 18 40 0.0 0.0 0.00 0.00 0.00 84 1020.7
20260502054343 18 53 0.0 0.0 0.00 0.00 0.00 84 1020.6
20260502053333 18 320 0.0 1.6 0.00 0.00 0.00 84 1020.7
20260502052348 18 24 0.0 3.2 0.00 0.00 0.00 85 1020.6
20260502051420 18 348 0.0 3.2 0.00 0.00 0.00 85 1020.5
20260502050344 18 334 0.0 4.8 0.00 0.00 0.00 85 1020.6
20260502045409 18 302 0.0 3.2 0.00 0.00 0.00 85 1020.5
20260502044344 18 317 0.0 4.8 0.00 0.00 0.00 86 1020.4
20260502043400 18 38 0.0 3.2 0.00 0.00 0.00 85 1020.3
20260502042340 18 325 0.0 3.2 0.00 0.00 0.00 86 1020.2
20260502041355 18 326 0.0 4.8 0.00 0.00 0.00 86 1020.4
20260502040341 17 275 0.0 1.6 0.00 0.00 0.00 87 1020.6
20260502035348 17 275 0.0 1.6 0.00 0.00 0.00 87 1020.7
20260502034403 17 360 1.6 6.4 0.00 0.00 0.00 86 1020.8
20260502033357 17 340 0.0 0.0 0.00 0.00 0.00 87 1020.8
20260502032342 17 250 0.0 0.0 0.00 0.00 0.00 87 1020.9
20260502031355 17 250 0.0 0.0 0.00 0.00 0.00 87 1020.9
20260502030402 17 250 0.0 0.0 0.00 0.00 0.00 87 1020.8
20260502025350 17 251 0.0 0.0 0.00 0.00 0.00 88 1020.9
20260502024334 17 250 0.0 1.6 0.00 0.00 0.00 88 1020.9
20260502023408 17 33 0.0 0.0 0.00 0.00 0.00 88 1020.8
20260502022403 17 33 0.0 0.0 0.00 0.00 0.00 88 1020.6
20260502021357 17 33 0.0 1.6 0.00 0.00 0.00 88 1020.8
20260502020344 17 344 0.0 0.0 0.00 0.00 0.00 88 1020.9
20260502015350 17 344 0.0 0.0 0.00 0.00 0.00 87 1020.9
20260502014404 17 360 0.0 0.0 0.00 0.00 0.00 87 1020.8
20260502013347 17 344 0.0 0.0 0.00 0.00 0.00 87 1021.1
20260502012342 17 344 0.0 0.0 0.00 0.00 0.00 87 1021.0
20260502011357 17 344 0.0 0.0 0.00 0.00 0.00 87 1021.2
20260502010338 17 34 0.0 0.0 0.00 0.00 0.00 87 1021.3
20260502005348 17 34 0.0 0.0 0.00 0.00 0.00 87 1021.4
20260502004333 17 34 0.0 0.0 0.00 0.00 0.00 87 1021.7
20260502003343 17 34 0.0 0.0 0.00 0.00 0.00 87 1021.7
20260502002356 17 34 0.0 3.2 0.00 0.00 0.00 87 1021.9
20260502001340 17 26 1.6 4.8 0.00 0.00 0.00 87 1021.9
20260502000335 17 49 0.0 3.2 0.00 0.00 0.00 87 1022.1
20260501235341 17 40 0.0 4.8 0.00 0.00 0.00 87 1022.2
20260501234347 17 80 1.6 4.8 0.00 0.00 0.00 88 1022.2
20260501233341 17 81 0.0 0.0 0.00 0.00 0.00 88 1022.3
20260501232356 17 80 0.0 0.0 0.00 0.00 0.00 88 1022.4
20260501231337 17 120 0.0 3.2 0.00 0.00 0.00 87 1022.3
20260501230352 17 20 0.0 3.2 0.00 0.00 0.00 87 1022.2
20260501225359 18 76 3.2 6.4 0.00 0.00 0.00 87 1022.3